THOR ABLESTAR DEB, 967

Orbit data source: Space-Track

THOR ABLESTAR DEB, 967 is space debris in LEO originally from a launch on Sun, 13 Dec 1964 UTC launched from the Air Force Western Test Range (AFWTR). Debris objects in space refer to the collection of defunct objects orbiting the Earth. Examples of debris include non-operational satellites, rocket bodies, and fragments generated from explosions, collisions, or faulty payload assembly.

Loading next visibility...
Identifier
967, 1964-083F
Orbit
LEO
Country
Flag of USUS
Related business
Manufacturer
Unknown
Mission
Spacecraft
Bus & Motor
Unknown
Mass
Unknown
Launch date (UTC)
1964-12-13 (61 years ago)
Launch vehicle
Unknown
Launch site
Air Force Western Test Range (AFWTR)
Object type
Payload
Rocket body
Debris
Shape & HBR
Unknown
Radar Cross Section
Small (<0.1 m²)

Expand to show TLE details & history
Last TLE update: 11 hours ago

TLE from 11 hours ago
0 THOR ABLESTAR DEB
1 00967U 64083F   25260.74693593  .00000251  00000-0  28712-3 0  9995
2 00967  89.9558 175.1333 0023055 119.8905 302.3023 13.67263399 18752
Epoch: 2025-09-17T17:55Z
TLE epoch observation values (Epoch: 2025-09-17T17:55:35.264Z)
Latitude
62.05699°
Longitude
-90.59919°
Altitude
1,011.06 km
Speed
7.356 km/s
True Right ascension
11h 40m 51s
True Declination
61° 55' 09"
Sunlit
Object was in daylight at epoch
Visualization orbit readout
Latitude
Unknown
Longitude
Unknown
Altitude
Unknown
Speed
Unknown
Apparent Right ascension
Unknown
Apparent Declination
Unknown
Sunlit
N/A
Visualization observer readout
Local Sidereal Time
21:39:21
Azimuth
Unknown
Elevation
Unknown
Doppler factor
Unknown
Orbital elements
Apogee altitude
1,023.462 km
Perigee altitude
989.412 km
Semi-major axis
7,384.574 km
Eccentricity
0.00231
Inclination
89.9558°
RAAN
175.1333°
Arg. of periapsis
119.8905°
True anomaly
302.07865°
Mean anomaly
302.3023°
Eccentric anomaly
302.19051°
Mean motion
3.42023 °/min
Orbital period
105.26 mins
BSTAR
0.00028712
Loading maneuver chart data...
Computing Atmospheric mass density...

Documentation

Showing up to 5 results
|